Weather History for Randolph AFB, TX

Change the Weather History Date:

Thursday, February 23, 2012

  Actual Average Record
Temperature  
Mean Temperature 71 °F -  
Max Temperature 84 °F 64 °F 84 °F (2012)
Min Temperature 58 °F 45 °F 32 °F (2009)
Cooling Degree Days 6    
Growing Degree Days 21 (Base 50)    
Moisture  
Dew Point 58 °F    
Average Humidity 66    
Maximum Humidity 92    
Minimum Humidity 30    
Precipitation  
Precipitation 0.00 in - - ()
Sea Level Pressure  
Sea Level Pressure 29.64 in    
Wind  
Wind Speed 7 mph (SSW)    
Max Wind Speed 16 mph    
Max Gust Speed -    
Visibility 10 miles    
Events      
Averages and records for this station are not official NWS values.
T = Trace of Precipitation, MM = Missing Value Source: NWS Daily Summary

Daily Weather History Graph

Daily Weather History Graph

Search for Another Location

Airport:

Trip Planner

Search our weather history database for the weather conditions in past years. The results will help you decide how hot, cold, wet, or windy it might be!

Date:

Astronomy

Feb. 23, 2012 Rise Set
Actual Time 7:05 AM CST 6:28 PM CST
Civil Twilight 6:41 AM CST 6:52 PM CST
Nautical Twilight 6:13 AM CST 7:19 PM CST
Astronomical Twilight 5:45 AM CST 7:47 PM CST
Moon 7:45 AM CST (2/23) 8:19 PM CST (2/23)
Length of Visible Light 12h 10m
Length of Day
11h 22m
Waxing Crescent, 3% of the Moon is Illuminated
Feb 23
Waxing Crescent
Feb 29
First Quarter
Mar 8
Full
Mar 14
Last Quarter
Mar 22
New

Hourly Weather History & Observations

Time (CST) Temp. Heat Index Dew Point Humidity Pressure Visibility Wind Dir Wind Speed Gust Speed Precip Events Conditions
12:55 AM 64.2 °F - 50.7 °F 61% 29.70 in 10.0 mi SW 5.8 mph - N/A   Clear
1:55 AM 64.2 °F - 52.9 °F 67% 29.70 in 10.0 mi SSW 4.6 mph - N/A   Clear
2:55 AM 60.4 °F - 52.0 °F 74% 29.68 in 10.0 mi WSW 5.8 mph - N/A   Clear
3:55 AM 63.1 °F - 55.0 °F 75% 29.65 in 10.0 mi SSW 3.5 mph - N/A   Clear
4:55 AM 60.1 °F - 54.5 °F 82% 29.65 in 10.0 mi South 6.9 mph - N/A   Clear
5:55 AM 58.3 °F - 55.2 °F 90% 29.65 in 10.0 mi South 8.1 mph - N/A   Clear
6:55 AM 58.6 °F - 55.9 °F 91% 29.66 in 10.0 mi SSW 10.4 mph - N/A   Clear
7:55 AM 60.3 °F - 55.4 °F 84% 29.68 in 10.0 mi SW 4.6 mph - N/A   Clear
8:55 AM 68.7 °F - 56.8 °F 66% 29.69 in 10.0 mi WSW 8.1 mph - N/A   Clear
9:55 AM 68.7 °F - 56.8 °F 66% 29.75 in 10.0 mi WSW 8.1 mph - N/A   Clear
10:55 AM 77.7 °F - 63.5 °F 61% 29.68 in 10.0 mi SW 16.1 mph - N/A   Clear
11:55 AM 80.6 °F 81.7 °F 62.1 °F 53% 29.66 in 10.0 mi SW 12.7 mph - N/A   Clear
12:55 PM 84.0 °F 82.7 °F 54.7 °F 36% 29.63 in 10.0 mi SW 11.5 mph - N/A   Clear
1:55 PM 84.4 °F - 49.5 °F 30% 29.60 in 10.0 mi SW 10.4 mph - N/A   Partly Cloudy
2:55 PM 82.8 °F - 49.8 °F 32% 29.58 in 10.0 mi South 9.2 mph - N/A   Partly Cloudy
3:55 PM 81.9 °F 81.7 °F 57.2 °F 43% 29.57 in 10.0 mi South 9.2 mph - N/A   Partly Cloudy
4:55 PM 81.1 °F 81.0 °F 56.3 °F 42% 29.57 in 10.0 mi South 6.9 mph - N/A   Clear
5:55 PM 77.9 °F - 59.5 °F 53% 29.58 in 10.0 mi South 4.6 mph - N/A   Clear
6:55 PM 75.4 °F - 63.0 °F 65% 29.58 in 10.0 mi South 5.8 mph - N/A   Clear
7:55 PM 72.9 °F - 64.6 °F 75% 29.60 in 10.0 mi South 3.5 mph - N/A   Clear
8:55 PM 72.0 °F - 64.9 °F 78% 29.61 in 10.0 mi SSW 8.1 mph - N/A   Clear
9:55 PM 71.4 °F - 66.7 °F 85% 29.62 in 10.0 mi SSW 5.8 mph - N/A   Clear
10:55 PM 70.3 °F - 67.6 °F 91% 29.64 in 10.0 mi SSW 6.9 mph - N/A   Clear
11:55 PM 70.9 °F - 68.4 °F 92% 29.65 in 10.0 mi SSW 8.1 mph - N/A   Clear